Location: Kampernieuwstad
(52.5135°N, 5.8742°E)
Time: 07:27:21
(UTC+00:00)

Cosmos 2322 Rocket - Pass Details

Date: 15 May 2026
Orbit: 831 x 850 km, 71.0° (Epoch: 6 June)

Event Time Altitude Azimuth Distance (km) Brightness Sun altitude
Rises 20:32:28 0° 329° (NNW) 3,406 7.4 -8.5°
Reaches altitude 10° 20:34:56 10° 331° (NNW) 2,471 6.2 -8.7°
Maximum altitude 20:40:37 77° 57° (ENE) 873 2.3 -9.3°
Enters shadow 20:45:50 12° 144° (SE) 2,293 3.8 -9.8°
